Regional Weather Roundup
Issued by NWS

Home | Current Version | Previous Version | Text Only | Print | Product List | Glossary Off
Versions: 1 2 3 4 5 6 7 8 9 10 11 12 13 14 15 16 17 18 19 20 21 22 23 24 25 26 27 28 29 30 31 32 33 34 35 36 37 38 39 40 41 42 43 44 45 46 47 48 49 50

595
ASUS45 KBOI 221110
RWRID

IDAHO REGIONAL WEATHER ROUNDUP
NATIONAL WEATHER SERVICE BOISE ID
500 AM MDT TUE MAY 22 2018

NOTE: "FAIR" INDICATES FEW OR NO CLOUDS BELOW 12000 FEET
WITH NO SIGNIFICANT WEATHER AND/OR OBSTRUCTIONS TO VISIBILITY

IDZ012-014-221200-
SOUTHWEST IDAHO


CITY           SKY/WX    TMP DP  RH WIND       PRES   REMARKS
BOISE          CLEAR     56  50  80 S5        29.88R
CALDWELL       CLEAR     57  50  77 W6        29.87S
MOUNTAIN HOME  PTCLDY    53  53 100 NW3       29.89R
$$

IDZ016-017-221200-
SOUTHCENTRAL IDAHO


CITY           SKY/WX    TMP DP  RH WIND       PRES   REMARKS
BURLEY         MOCLDY    54  46  74 W3        29.91F
JEROME         MOCLDY    54  49  83 NE7       29.93S
TWIN FALLS     MOCLDY    55  48  77 CALM      29.94R
$$

IDZ019>023-221200-
SOUTHEAST IDAHO


CITY           SKY/WX    TMP DP  RH WIND       PRES   REMARKS
IDAHO FALLS    PTCLDY    49  46  90 CALM      29.97S
POCATELLO      MOCLDY    50  45  83 SE5       29.97R
REXBURG        CLEAR     47  42  83 CALM      29.98R
$$

IDZ006-010-011-018-031-032-221200-
CENTRAL IDAHO MOUNTAINS


CITY           SKY/WX    TMP DP  RH WIND       PRES   REMARKS
MCCALL         PTCLDY    48  43  82 N6        29.96S
HAILEY         MOCLDY    46  43  87 NW7       30.01F
STANLEY          N/A     40  38  93 S3        30.06S
SALMON         PTCLDY    50  48  93 CALM      30.00R
CHALLIS        CLOUDY    56  48  74 N6        30.02R
$$

IDZ002-004-006-007-026-221200-
NORTHERN IDAHO


CITY           SKY/WX    TMP DP  RH WIND       PRES   REMARKS
LEWISTON       CLEAR     59  54  83 CALM      29.92S
LOWELL           N/A     56  53  90 N3        29.97S
COEUR D`ALENE  CLEAR     52  49  89 E5        29.96R
MULLAN PASS    CLEAR     51  41  68 VRB3      30.06S
$$




USA.gov is the U.S. government's official web portal to all federal, state and local government web resources and services.